Regional Weather Roundup
Issued by NWS

Home | Current Version | Previous Version | Text Only | Print | Product List | Glossary Off
Versions: 1 2 3 4 5 6 7 8 9 10 11 12 13 14 15 16 17 18 19 20 21 22 23 24 25 26 27 28 29 30 31 32 33 34 35 36 37 38 39 40 41 42 43 44 45 46 47 48 49 50

000
ASUS44 KMEG 171000
RWRTN
TENNESSEE HOURLY STATE WEATHER ROUNDUP
NATIONAL WEATHER SERVICE MEMPHIS TN
500 AM CDT WED SEP 17 2014

TNZ002-004-019-021-049-052-054-088>092-171100-
WEST TENNESSEE

CITY           SKY/WX    TMP DP  RH WIND       PRES   REMARKS
MEMPHIS INTL   CLEAR     64  59  83 NE6       30.02S
NWS MEMPHIS      N/A     62 N/A N/A MISG        N/A
JACKSON        CLEAR     58  54  86 CALM      30.04S
DYERSBURG      CLEAR     55  45  67 NE6       30.05S
PARIS          CLEAR     46  46 100 N6        30.04F
$$

TNZ008-025-027-028-033-062-065-066-171100-
NORTH MIDDLE TENNESSEE

CITY           SKY/WX    TMP DP  RH WIND       PRES   REMARKS
NASHVILLE      PTCLDY    56  54  93 N8        30.03S
CLARKSVILLE    CLEAR     50  48  93 CALM      30.05S FOG
COOKEVILLE     CLOUDY    55  55 100 NE3       30.03S
CROSSVILLE     FOG       56  53  90 N6        30.05F VSB 3/4
$$

TNZ061-075-076-078-094-096-097-171100-
SOUTH MIDDLE TENNESSEE

CITY           SKY/WX    TMP DP  RH WIND       PRES   REMARKS
SHELBYVILLE    CLOUDY    57  57 100 N5        30.03S
$$

TNZ017-018-042-046-047-171100-
NORTHEAST TENNESSEE

CITY           SKY/WX    TMP DP  RH WIND       PRES   REMARKS
TRI CITIES     MOCLDY    60  56  86 CALM      30.01F
$$

TNZ012-013-036-069-073-074-171100-
CENTRAL EAST TENNESSEE

CITY           SKY/WX    TMP DP  RH WIND       PRES   REMARKS
KNOXVILLE      CLOUDY    61  58  90 N6        30.00F
OAK RIDGE      MOCLDY    58  55  90 CALM      30.04S
$$

TNZ083-085-099-171100-
SOUTHEAST TENNESSEE

CITY           SKY/WX    TMP DP  RH WIND       PRES   REMARKS
CHATTANOOGA    PTCLDY    64  59  83 NW5       30.02R
$$

SKY/WX REPORTED AS FAIR MEANS FEW OR NO CLOUDS BELOW
12 THOUSAND FEET.




USA.gov is the U.S. government's official web portal to all federal, state and local government web resources and services.